Regional Weather Roundup
Issued by NWS

Home | Current Version | Previous Version | Text Only | Print | Product List | Glossary On
Versions: 1 2 3 4 5 6 7 8 9 10 11 12 13 14 15 16 17 18 19 20 21 22 23 24 25 26 27 28 29 30 31 32 33 34 35 36 37 38 39 40 41 42 43 44 45 46 47 48 49 50
000
ASUS45 KREV 211210
RWRNV
NEVADA REGIONAL WEATHER ROUNDUP
NATIONAL WEATHER SERVICE RENO NV
500 AM PDT SUN SEP 21 2014

NOTE: "FAIR" INDICATES FEW OR NO CLOUDS BELOW 12,000 FEET WITH NO
SIGNIFICANT WEATHER AND/OR OBSTRUCTIONS TO VISIBILITY.

NVZ001-003-004-211300-
WESTERN NEVADA

CITY           SKY/WX    TMP DP  RH WIND       PRES   REMARKS
RENO           CLOUDY    67  43  41 W3        30.08R
6HR MIN TEMP:  66; 6HR MAX TEMP:  74;

CARSON CITY    CLOUDY    61  45  55 CALM      30.11R
MINDEN         CLOUDY    57  41  54 SE7       30.11S
SLIDE MTN        N/A     46  34  61 SE5         N/A
FALLON         CLOUDY    61  50  67 N5        30.07S
6HR MIN TEMP:  61; 6HR MAX TEMP:  76; 6HR PCP: TRACE;

LOVELOCK       CLOUDY    62  52  69 CALM      30.05F
6HR MIN TEMP:  61; 6HR MAX TEMP:  70; 6HR PCP: TRACE;

HAWTHORNE      CLEAR     61  43  51 SE7       30.08F
$$

NVZ002-CAZ072-073-211300-
NORTHERN AND CENTRAL SIERRA

CITY           SKY/WX    TMP DP  RH WIND       PRES   REMARKS
S. LAKE TAHOE  CLOUDY    55  39  54 CALM      30.16S
6HR MIN TEMP:  54; 6HR MAX TEMP:  61; 6HR PCP: TRACE;

TRUCKEE        CLOUDY    52  43  71 CALM      30.16R HAZE
SQUAW VLY 8000 NOT AVBL
MAMMOTH LAKES  FAIR      43  39  87 W3        30.23S
BRIDGEPORT     FAIR      44  40  85 CALM      30.19S
$$

NVZ030-031-036-211300-
NORTHERN NEVADA

CITY           SKY/WX    TMP DP  RH WIND       PRES   REMARKS
ELKO           CLOUDY    58  50  75 S7        30.18S
6HR MIN TEMP:  57; 6HR MAX TEMP:  63;

WINNEMUCCA     CLOUDY    59  51  75 NE7       30.09F
6HR MIN TEMP:  59; 6HR MAX TEMP:  71; 6HR PCP: TRACE;

WENDOVER       CLOUDY    68  52  56 S15       30.11R
$$

NVZ035-037-211300-
CENTRAL NEVADA

CITY           SKY/WX    TMP DP  RH WIND       PRES   REMARKS
ELY            LGT RAIN  53  52  96 NW3       30.26F
6HR MIN TEMP:  53; 6HR MAX TEMP:  60; 6HR PCP:  0.18;

EUREKA           N/A     53  53 100 SE3       30.20F
6HR MIN TEMP:  53; 6HR MAX TEMP:  56; 6HR PCP:  0.62;

$$

NVZ013-014-211300-
SOUTH CENTRAL NEVADA

CITY           SKY/WX    TMP DP  RH WIND       PRES   REMARKS
TONOPAH        CLEAR     54  48  80 N8        30.16F
6HR MIN TEMP:  53; 6HR MAX TEMP:  58; 6HR PCP:  0.01;

$$

NVZ017-020-022-211300-
SOUTHERN NEVADA

CITY           SKY/WX    TMP DP  RH WIND       PRES   REMARKS
LAS VEGAS      MOCLDY    75  60  59 SE5       29.92R
6HR MIN TEMP:  75; 6HR MAX TEMP:  84; 6HR PCP:  0.01;

N. LAS VEGAS   PTCLDY    74  59  59 N7        29.94R
6HR MIN TEMP:  74; 6HR MAX TEMP:  84; 6HR PCP: TRACE;

NELLIS AFB     MOCLDY    74  64  71 E7        29.93S
6HR MIN TEMP:  74; 6HR MAX TEMP:  78; 6HR PCP:  0.08;

HENDERSON      CLEAR     73  60  63 NE7       29.98R
6HR MIN TEMP:  72; 6HR MAX TEMP:  82; 6HR PCP: TRACE;

MERCURY        MOCLDY    67  57  70 NE9       30.01S
6HR MIN TEMP:  66; 6HR MAX TEMP:  70;

$$


USA.gov is the U.S. government's official web portal to all federal, state and local government web resources and services.